Location: Normandy Village
(37.8755°N, 122.2655°W)
Time: 20:03:24
(UTC+00:00)

Unknown - Pass Details

Date: 22 September 2019
Orbit: 303 x 340 km, 53.0° (Epoch: 20 October)

Event Time Altitude Azimuth Distance (km) Brightness Sun altitude
Exits shadow 12:53:17 - 326° (NW) 1,529 5.7 -13.3°
Reaches altitude 10° 12:53:55 10° 330° (NNW) 1,289 5.3 -13.1°
Maximum altitude 12:56:32 31° 36° (NE) 629 4.4 -12.6°
Drops below altitude 10° 12:59:10 10° 102° (ESE) 1,297 6.7 -12.1°
Sets 13:01:18 0° 113° (ESE) 2,139 7.7 -11.7°
